Regional Weather Roundup
Issued by NWS

Home | Current Version | Previous Version | Graphics & Text | Print | Product List | Glossary On
Versions: 1 2 3 4 5 6 7 8 9 10 11 12 13 14 15 16 17 18 19 20 21 22 23 24 25 26 27 28 29 30 31 32 33 34 35 36 37 38 39 40 41 42 43 44 45 46 47 48 49 50
000
ASUS43 KLSX 261907
RWRMO

WEATHER SUMMARY FOR MISSOURI
NATIONAL WEATHER SERVICE SPRINGFIELD MO
200 PM CDT TUE MAY 26 2015

NOTE: "FAIR" INDICATES FEW OR NO CLOUDS BELOW 12,000 FEET WITH NO
       SIGNIFICANT WEATHER AND/OR OBSTRUCTIONS TO VISIBILITY.
       CURRENT SKY AND/OR WEATHER CONDITIONS ARE NOT AVAILABLE FOR
       CHILLICOTHE AND FARMINGTON.

MOZ001>031-035>038-043-044-053-054-262000-
...NORTHERN AND WESTERN MISSOURI...

CITY           SKY/WX    TMP DP  RH WIND       PRES   REMARKS
KANSAS CTY INT PTSUNNY   75  60  59 W22G28    29.86R
KANSAS C DTWN  LGT RAIN  79  57  46 W18G32    29.86R
LEE`S SUMMIT   CLOUDY    74  58  57 SW20G30   29.89R
ST JOSEPH      PTSUNNY   74  61  63 SW22G29   29.83R
CHILLICOTHE      N/A     72  61  68 SW9       29.85R
KIRKSVILLE     PTSUNNY   73  61  65 W15G22    29.85S

$$
MOZ066>068-077>081-088>096-101>105-262000-
...SOUTHWEST MISSOURI...

CITY           SKY/WX    TMP DP  RH WIND       PRES   REMARKS
SPRINGFIELD    MOSUNNY   74  60  61 SW12      30.00R
JOPLIN         MOSUNNY   74  63  68 S10       29.99F

$$
MOZ032>034-039>042-045>050-055>058-069>072-262000-
...CENTRAL MISSOURI...

CITY           SKY/WX    TMP DP  RH WIND       PRES   REMARKS
COLUMBIA       MOSUNNY   75  62  64 SW15      29.92R
JEFFERSON CITY MOSUNNY   76  58  53 SW18G24   29.92S
ROLLA          PTSUNNY   73  61  65 SW17G24   29.95S
SEDALIA        MOSUNNY   77  61  57 SW18G25   29.92R
WHITEMAN AFB   PTSUNNY   76  60  57 SW18      29.90R
WARRENSBURG    PTSUNNY   75  59  57 SW17G25   29.90S
OSAGE BEACH    PTSUNNY   75  57  53 W12       29.95F

$$
MOZ051-052-059>065-262000-
...EAST CENTRAL MISSOURI...

CITY           SKY/WX    TMP DP  RH WIND       PRES   REMARKS
ST LOUIS INTL  LGT RAIN  74  59  59 SW21G30   29.93R
SPIRIT OF STL  PTSUNNY   74  63  68 SW14      29.92R
ST CHARLES     CLOUDY    76  62  62 SW23      29.90R

$$
MOZ072>076-082>087-097>100-106>115-262000-
...SOUTH CENTRAL AND SOUTHEAST MISSOURI...

CITY           SKY/WX    TMP DP  RH WIND       PRES   REMARKS
CAPE GIRARDEAU PTSUNNY   74  64  71 SW13G23   29.99F
FARMINGTON     PTSUNNY   72  61  68 W14       30.01F
POPLAR BLUFF   PTSUNNY   74  63  68 SW13G20   29.99F
WEST PLAINS    PTSUNNY   71  60  68 SW9G17    30.03S

$$



USA.gov is the U.S. government's official web portal to all federal, state and local government web resources and services.